Year,Month,Day,Hour,Minute,Value (Times are PST for temperature in C)
2010,03,19,00,00,3.60
2010,03,19,00,01,3.60
2010,03,19,00,02,3.60
2010,03,19,00,03,3.60
2010,03,19,00,04,3.60
2010,03,19,00,05,3.60
2010,03,19,00,06,3.60
2010,03,19,00,07,3.60
2010,03,19,00,08,3.60
2010,03,19,00,09,3.60
2010,03,19,00,10,3.60
2010,03,19,00,11,3.60
2010,03,19,00,12,3.50
2010,03,19,00,13,3.50
2010,03,19,00,14,3.50
2010,03,19,00,15,3.50
2010,03,19,00,16,3.50
2010,03,19,00,17,3.40
2010,03,19,00,18,3.40
2010,03,19,00,19,3.40
2010,03,19,00,20,3.40
2010,03,19,00,21,3.30
2010,03,19,00,22,3.30
2010,03,19,00,23,3.30
2010,03,19,00,24,3.30
2010,03,19,00,25,3.30
2010,03,19,00,26,3.30
2010,03,19,00,27,3.30
2010,03,19,00,28,3.20
2010,03,19,00,29,3.20
2010,03,19,00,30,3.20
2010,03,19,00,31,3.20
2010,03,19,00,32,3.20
2010,03,19,00,33,3.20
2010,03,19,00,34,3.20
2010,03,19,00,35,3.20
2010,03,19,00,36,3.20
2010,03,19,00,37,3.20
2010,03,19,00,38,3.20
2010,03,19,00,39,3.20
2010,03,19,00,40,3.20
2010,03,19,00,41,3.20
2010,03,19,00,42,3.20
2010,03,19,00,43,3.20
2010,03,19,00,44,3.20
2010,03,19,00,45,3.20
2010,03,19,00,46,3.20
2010,03,19,00,47,3.20
2010,03,19,00,48,3.20
2010,03,19,00,49,3.20
2010,03,19,00,50,3.20
2010,03,19,00,51,3.20
2010,03,19,00,52,3.20
2010,03,19,00,53,3.20
2010,03,19,00,54,3.20
2010,03,19,00,55,3.20
2010,03,19,00,56,3.20
2010,03,19,00,57,3.20
2010,03,19,00,58,3.20
2010,03,19,00,59,3.20
2010,03,19,01,00,3.20
2010,03,19,01,01,3.20
2010,03,19,01,02,3.20
2010,03,19,01,03,3.20
2010,03,19,01,04,3.20
2010,03,19,01,05,3.30
2010,03,19,01,06,3.30
2010,03,19,01,07,3.30
2010,03,19,01,08,3.20
2010,03,19,01,09,3.20
2010,03,19,01,10,3.20
2010,03,19,01,11,3.20
2010,03,19,01,12,3.20
2010,03,19,01,13,3.20
2010,03,19,01,14,3.20
2010,03,19,01,15,3.20
2010,03,19,01,16,3.10
2010,03,19,01,17,3.10
2010,03,19,01,18,3.10
2010,03,19,01,19,3.10
2010,03,19,01,20,3.10
2010,03,19,01,21,3.00
2010,03,19,01,22,3.00
2010,03,19,01,23,2.90
2010,03,19,01,24,2.90
2010,03,19,01,25,2.90
2010,03,19,01,26,2.90
2010,03,19,01,27,2.90
2010,03,19,01,28,2.90
2010,03,19,01,29,2.80
2010,03,19,01,30,2.80
2010,03,19,01,31,2.80
2010,03,19,01,32,2.80
2010,03,19,01,33,2.80
2010,03,19,01,34,2.80
2010,03,19,01,35,2.80
2010,03,19,01,36,2.80
2010,03,19,01,37,2.70
2010,03,19,01,38,2.70
2010,03,19,01,39,2.70
2010,03,19,01,40,2.70
2010,03,19,01,41,2.70
2010,03,19,01,42,2.70
2010,03,19,01,43,2.70
2010,03,19,01,44,2.70
2010,03,19,01,45,2.70
2010,03,19,01,46,2.70
2010,03,19,01,47,2.70
2010,03,19,01,48,2.70
2010,03,19,01,49,2.70
2010,03,19,01,50,2.70
2010,03,19,01,51,2.70
2010,03,19,01,52,2.70
2010,03,19,01,53,2.70
2010,03,19,01,54,2.70
2010,03,19,01,55,2.70
2010,03,19,01,56,2.70
2010,03,19,01,57,2.70
2010,03,19,01,58,2.70
2010,03,19,01,59,2.70
2010,03,19,02,00,2.70
2010,03,19,02,01,2.70
2010,03,19,02,02,2.70
2010,03,19,02,03,2.70
2010,03,19,02,04,2.70
2010,03,19,02,05,2.70
2010,03,19,02,06,2.70
2010,03,19,02,07,2.70
2010,03,19,02,08,2.70
2010,03,19,02,09,2.70
2010,03,19,02,10,2.70
2010,03,19,02,11,2.70
2010,03,19,02,12,2.70
2010,03,19,02,13,2.70
2010,03,19,02,14,2.70
2010,03,19,02,15,2.60
2010,03,19,02,16,2.60
2010,03,19,02,17,2.60
2010,03,19,02,18,2.60
2010,03,19,02,19,2.60
2010,03,19,02,20,2.60
2010,03,19,02,21,2.60
2010,03,19,02,22,2.60
2010,03,19,02,23,2.60
2010,03,19,02,24,2.60
2010,03,19,02,25,2.60
2010,03,19,02,26,2.60
2010,03,19,02,27,2.60
2010,03,19,02,28,2.60
2010,03,19,02,29,2.60
2010,03,19,02,30,2.60
2010,03,19,02,31,2.60
2010,03,19,02,32,2.60
2010,03,19,02,33,2.60
2010,03,19,02,34,2.70
2010,03,19,02,35,2.70
2010,03,19,02,36,2.70
2010,03,19,02,37,2.70
2010,03,19,02,38,2.70
2010,03,19,02,39,2.70
2010,03,19,02,40,2.70
2010,03,19,02,41,2.60
2010,03,19,02,42,2.60
2010,03,19,02,43,2.60
2010,03,19,02,44,2.50
2010,03,19,02,45,2.50
2010,03,19,02,46,2.50
2010,03,19,02,47,2.50
2010,03,19,02,48,2.40
2010,03,19,02,49,2.40
2010,03,19,02,50,2.40
2010,03,19,02,51,2.40
2010,03,19,02,52,2.40
2010,03,19,02,53,2.40
2010,03,19,02,54,2.40
2010,03,19,02,55,2.30
2010,03,19,02,56,2.30
2010,03,19,02,57,2.30
2010,03,19,02,58,2.30
2010,03,19,02,59,2.30
2010,03,19,03,00,2.30
2010,03,19,03,01,2.30
2010,03,19,03,02,2.30
2010,03,19,03,03,2.30
2010,03,19,03,04,2.30
2010,03,19,03,05,2.20
2010,03,19,03,06,2.20
2010,03,19,03,07,2.20
2010,03,19,03,08,2.20
2010,03,19,03,09,2.20
2010,03,19,03,10,2.20
2010,03,19,03,11,2.20
2010,03,19,03,12,2.20
2010,03,19,03,13,2.20
2010,03,19,03,14,2.20
2010,03,19,03,15,2.20
2010,03,19,03,16,2.10
2010,03,19,03,17,2.10
2010,03,19,03,18,2.10
2010,03,19,03,19,2.20
2010,03,19,03,20,2.10
2010,03,19,03,21,2.10
2010,03,19,03,22,2.10
2010,03,19,03,23,2.10
2010,03,19,03,24,2.10
2010,03,19,03,25,2.10
2010,03,19,03,26,2.10
2010,03,19,03,27,2.10
2010,03,19,03,28,2.10
2010,03,19,03,29,2.10
2010,03,19,03,30,2.20
2010,03,19,03,31,2.20
2010,03,19,03,32,2.20
2010,03,19,03,33,2.30
2010,03,19,03,34,2.30
2010,03,19,03,35,2.30
2010,03,19,03,36,2.30
2010,03,19,03,37,2.30
2010,03,19,03,38,2.30
2010,03,19,03,39,2.30
2010,03,19,03,40,2.30
2010,03,19,03,41,2.30
2010,03,19,03,42,2.30
2010,03,19,03,43,2.30
2010,03,19,03,44,2.30
2010,03,19,03,45,2.30
2010,03,19,03,46,2.30
2010,03,19,03,47,2.30
2010,03,19,03,48,2.30
2010,03,19,03,49,2.20
2010,03,19,03,50,2.20
2010,03,19,03,51,2.20
2010,03,19,03,52,2.20
2010,03,19,03,53,2.20
2010,03,19,03,54,2.20
2010,03,19,03,55,2.20
2010,03,19,03,56,2.20
2010,03,19,03,57,2.20
2010,03,19,03,58,2.20
2010,03,19,03,59,2.10
2010,03,19,04,00,2.10
2010,03,19,04,01,2.10
2010,03,19,04,02,2.10
2010,03,19,04,03,2.10
2010,03,19,04,04,2.10
2010,03,19,04,05,2.00
2010,03,19,04,06,2.00
2010,03,19,04,07,2.00
2010,03,19,04,08,2.00
2010,03,19,04,09,1.90
2010,03,19,04,10,1.90
2010,03,19,04,11,1.90
2010,03,19,04,12,1.90
2010,03,19,04,13,1.90
2010,03,19,04,14,1.90
2010,03,19,04,15,1.80
2010,03,19,04,16,1.80
2010,03,19,04,17,1.80
2010,03,19,04,18,1.80
2010,03,19,04,19,1.80
2010,03,19,04,20,1.80
2010,03,19,04,21,1.80
2010,03,19,04,22,1.80
2010,03,19,04,23,1.80
2010,03,19,04,24,1.80
2010,03,19,04,25,1.70
2010,03,19,04,26,1.70
2010,03,19,04,27,1.70
2010,03,19,04,28,1.70
2010,03,19,04,29,1.70
2010,03,19,04,30,1.70
2010,03,19,04,31,1.70
2010,03,19,04,32,1.70
2010,03,19,04,33,1.70
2010,03,19,04,34,1.70
2010,03,19,04,35,1.60
2010,03,19,04,36,1.60
2010,03,19,04,37,1.60
2010,03,19,04,38,1.60
2010,03,19,04,39,1.60
2010,03,19,04,40,1.60
2010,03,19,04,41,1.60
2010,03,19,04,42,1.60
2010,03,19,04,43,1.60
2010,03,19,04,44,1.60
2010,03,19,04,45,1.50
2010,03,19,04,46,1.60
2010,03,19,04,47,1.60
2010,03,19,04,48,1.60
2010,03,19,04,49,1.60
2010,03,19,04,50,1.60
2010,03,19,04,51,1.60
2010,03,19,04,52,1.60
2010,03,19,04,53,1.50
2010,03,19,04,54,1.50
2010,03,19,04,55,1.50
2010,03,19,04,56,1.50
2010,03,19,04,57,1.50
2010,03,19,04,58,1.50
2010,03,19,04,59,1.40
2010,03,19,05,00,1.40
2010,03,19,05,01,1.40
2010,03,19,05,02,1.40
2010,03,19,05,03,1.40
2010,03,19,05,05,1.40
2010,03,19,05,06,1.40
2010,03,19,05,07,1.40
2010,03,19,05,08,1.30
2010,03,19,05,09,1.30
2010,03,19,05,10,1.30
2010,03,19,05,11,1.30
2010,03,19,05,12,1.30
2010,03,19,05,13,1.30
2010,03,19,05,14,1.30
2010,03,19,05,15,1.30
2010,03,19,05,16,1.30
2010,03,19,05,17,1.30
2010,03,19,05,18,1.30
2010,03,19,05,19,1.20
2010,03,19,05,20,1.20
2010,03,19,05,21,1.20
2010,03,19,05,22,1.20
2010,03,19,05,23,1.20
2010,03,19,05,24,1.20
2010,03,19,05,25,1.20
2010,03,19,05,26,1.20
2010,03,19,05,27,1.10
2010,03,19,05,28,1.10
2010,03,19,05,29,1.10
2010,03,19,05,30,1.10
2010,03,19,05,31,1.10
2010,03,19,05,32,1.10
2010,03,19,05,33,1.10
2010,03,19,05,34,1.00
2010,03,19,05,35,1.00
2010,03,19,05,36,1.00
2010,03,19,05,37,1.00
2010,03,19,05,38,1.00
2010,03,19,05,39,0.90
2010,03,19,05,40,0.90
2010,03,19,05,41,0.90
2010,03,19,05,42,0.90
2010,03,19,05,43,0.90
2010,03,19,05,44,0.90
2010,03,19,05,45,0.80
2010,03,19,05,46,0.80
2010,03,19,05,47,0.80
2010,03,19,05,48,0.80
2010,03,19,05,49,0.80
2010,03,19,05,50,0.80
2010,03,19,05,51,0.80
2010,03,19,05,52,0.70
2010,03,19,05,53,0.70
2010,03,19,05,54,0.70
2010,03,19,05,55,0.70
2010,03,19,05,56,0.70
2010,03,19,05,57,0.70
2010,03,19,05,58,0.70
2010,03,19,05,59,0.70
2010,03,19,06,00,0.70
2010,03,19,06,01,0.70
2010,03,19,06,02,0.70
2010,03,19,06,03,0.70
2010,03,19,06,04,0.70
2010,03,19,06,05,0.70
2010,03,19,06,06,0.70
2010,03,19,06,07,0.70
2010,03,19,06,08,0.60
2010,03,19,06,09,0.60
2010,03,19,06,10,0.50
2010,03,19,06,11,0.50
2010,03,19,06,12,0.50
2010,03,19,06,13,0.40
2010,03,19,06,14,0.40
2010,03,19,06,15,0.40
2010,03,19,06,16,0.40
2010,03,19,06,17,0.40
2010,03,19,06,18,0.30
2010,03,19,06,19,0.30
2010,03,19,06,20,0.30
2010,03,19,06,21,0.30
2010,03,19,06,22,0.30
2010,03,19,06,23,0.30
2010,03,19,06,24,0.30
2010,03,19,06,25,0.30
2010,03,19,06,26,0.30
2010,03,19,06,27,0.30
2010,03,19,06,28,0.30
2010,03,19,06,29,0.30
2010,03,19,06,30,0.30
2010,03,19,06,31,0.30
2010,03,19,06,32,0.30
2010,03,19,06,33,0.30
2010,03,19,06,34,0.30
2010,03,19,06,35,0.30
2010,03,19,06,36,0.30
2010,03,19,06,37,0.30
2010,03,19,06,38,0.30
2010,03,19,06,39,0.20
2010,03,19,06,40,0.20
2010,03,19,06,41,0.20
2010,03,19,06,42,0.20
2010,03,19,06,43,0.20
2010,03,19,06,44,0.10
2010,03,19,06,45,0.10
2010,03,19,06,46,0.10
2010,03,19,06,47,0.10
2010,03,19,06,48,0.10
2010,03,19,06,49,0.10
2010,03,19,06,50,0.00
2010,03,19,06,51,0.00
2010,03,19,06,52,0.00
2010,03,19,06,53,0.00
2010,03,19,06,54,-0.10
2010,03,19,06,55,-0.10
2010,03,19,06,56,-0.10
2010,03,19,06,57,-0.10
2010,03,19,06,58,-0.10
2010,03,19,06,59,-0.10
2010,03,19,07,00,-0.10
2010,03,19,07,01,-0.10
2010,03,19,07,02,-0.10
2010,03,19,07,03,-0.10
2010,03,19,07,04,-0.10
2010,03,19,07,05,-0.10
2010,03,19,07,06,-0.10
2010,03,19,07,07,-0.10
2010,03,19,07,08,-0.10
2010,03,19,07,09,-0.10
2010,03,19,07,10,-0.10
2010,03,19,07,11,-0.10
2010,03,19,07,12,-0.10
2010,03,19,07,13,-0.10
2010,03,19,07,14,-0.10
2010,03,19,07,15,-0.10
2010,03,19,07,16,-0.10
2010,03,19,07,17,-0.10
2010,03,19,07,18,-0.10
2010,03,19,07,19,-0.10
2010,03,19,07,20,-0.10
2010,03,19,07,21,-0.10
2010,03,19,07,22,-0.10
2010,03,19,07,23,-0.10
2010,03,19,07,24,-0.10
2010,03,19,07,25,-0.10
2010,03,19,07,26,-0.10
2010,03,19,07,27,-0.10
2010,03,19,07,28,-0.10
2010,03,19,07,29,-0.20
2010,03,19,07,30,-0.20
2010,03,19,07,31,-0.20
2010,03,19,07,32,-0.20
2010,03,19,07,33,-0.20
2010,03,19,07,34,-0.20
2010,03,19,07,35,-0.20
2010,03,19,07,36,-0.20
2010,03,19,07,37,-0.20
2010,03,19,07,38,-0.20
2010,03,19,07,39,-0.10
2010,03,19,07,40,-0.10
2010,03,19,07,41,-0.10
2010,03,19,07,42,-0.10
2010,03,19,07,43,-0.10
2010,03,19,07,44,-0.10
2010,03,19,07,45,-0.10
2010,03,19,07,46,-0.10
2010,03,19,07,47,-0.10
2010,03,19,07,48,-0.10
2010,03,19,07,49,-0.10
2010,03,19,07,50,-0.10
2010,03,19,07,51,-0.10
2010,03,19,07,52,-0.10
2010,03,19,07,53,-0.10
2010,03,19,07,54,-0.10
2010,03,19,07,55,-0.10
2010,03,19,07,56,0.00
2010,03,19,07,57,0.00
2010,03,19,07,58,0.10
2010,03,19,07,59,0.10
2010,03,19,08,00,0.10
2010,03,19,08,01,0.10
2010,03,19,08,02,0.10
2010,03,19,08,03,0.10
2010,03,19,08,04,0.10
2010,03,19,08,05,0.10
2010,03,19,08,06,0.10
2010,03,19,08,07,0.10
2010,03,19,08,08,0.10
2010,03,19,08,09,0.10
2010,03,19,08,10,0.20
2010,03,19,08,11,0.20
2010,03,19,08,12,0.20
2010,03,19,08,13,0.30
2010,03,19,08,14,0.30
2010,03,19,08,15,0.30
2010,03,19,08,16,0.40
2010,03,19,08,17,0.40
2010,03,19,08,18,0.40
2010,03,19,08,19,0.50
2010,03,19,08,20,0.50
2010,03,19,08,21,0.50
2010,03,19,08,22,0.60
2010,03,19,08,23,0.60
2010,03,19,08,24,0.60
2010,03,19,08,25,0.60
2010,03,19,08,26,0.70
2010,03,19,08,27,0.70
2010,03,19,08,28,0.70
2010,03,19,08,29,0.80
2010,03,19,08,30,0.80
2010,03,19,08,31,0.80
2010,03,19,08,32,0.90
2010,03,19,08,33,0.90
2010,03,19,08,34,0.90
2010,03,19,08,35,1.00
2010,03,19,08,36,1.10
2010,03,19,08,37,1.10
2010,03,19,08,38,1.20
2010,03,19,08,39,1.30
2010,03,19,08,40,1.30
2010,03,19,08,41,1.30
2010,03,19,08,42,1.30
2010,03,19,08,43,1.30
2010,03,19,08,44,1.30
2010,03,19,08,45,1.40
2010,03,19,08,46,1.40
2010,03,19,08,47,1.50
2010,03,19,08,48,1.50
2010,03,19,08,49,1.50
2010,03,19,08,50,1.60
2010,03,19,08,51,1.60
2010,03,19,08,52,1.60
2010,03,19,08,53,1.60
2010,03,19,08,54,1.70
2010,03,19,08,55,1.70
2010,03,19,08,56,1.80
2010,03,19,08,57,1.80
2010,03,19,08,58,1.90
2010,03,19,08,59,2.00
2010,03,19,09,00,2.00
2010,03,19,09,01,2.10
2010,03,19,09,02,2.10
2010,03,19,09,03,2.10
2010,03,19,09,04,2.20
2010,03,19,09,05,2.20
2010,03,19,09,06,2.20
2010,03,19,09,07,2.30
2010,03,19,09,08,2.30
2010,03,19,09,09,2.40
2010,03,19,09,10,2.40
2010,03,19,09,11,2.50
2010,03,19,09,12,2.60
2010,03,19,09,13,2.60
2010,03,19,09,14,2.70
2010,03,19,09,15,2.70
2010,03,19,09,16,2.80
2010,03,19,09,17,2.80
2010,03,19,09,18,2.80
2010,03,19,09,19,2.90
2010,03,19,09,20,2.90
2010,03,19,09,21,3.00
2010,03,19,09,22,3.10
2010,03,19,09,23,3.10
2010,03,19,09,24,3.10
2010,03,19,09,25,3.20
2010,03,19,09,26,3.20
2010,03,19,09,27,3.30
2010,03,19,09,28,3.40
2010,03,19,09,29,3.40
2010,03,19,09,30,3.50
2010,03,19,09,31,3.60
2010,03,19,09,32,3.70
2010,03,19,09,33,3.80
2010,03,19,09,34,3.80
2010,03,19,09,35,3.80
2010,03,19,09,36,3.90
2010,03,19,09,37,3.90
2010,03,19,09,38,4.00
2010,03,19,09,39,4.10
2010,03,19,09,40,4.10
2010,03,19,09,41,4.20
2010,03,19,09,42,4.30
2010,03,19,09,43,4.30
2010,03,19,09,44,4.40
2010,03,19,09,45,4.50
2010,03,19,09,46,4.50
2010,03,19,09,47,4.60
2010,03,19,09,48,4.80
2010,03,19,09,49,4.90
2010,03,19,09,50,5.10
2010,03,19,09,51,5.20
2010,03,19,09,52,5.40
2010,03,19,09,53,5.50
2010,03,19,09,54,5.70
2010,03,19,09,55,5.80
2010,03,19,09,56,6.00
2010,03,19,09,57,6.10
2010,03,19,09,58,6.30
2010,03,19,09,59,6.50
2010,03,19,10,00,6.60
2010,03,19,10,01,6.80
2010,03,19,10,02,6.80
2010,03,19,10,03,6.90
2010,03,19,10,04,7.00
2010,03,19,10,05,7.10
2010,03,19,10,06,7.20
2010,03,19,10,07,7.20
2010,03,19,10,08,7.20
2010,03,19,10,09,7.30
2010,03,19,10,10,7.30
2010,03,19,10,11,7.40
2010,03,19,10,12,7.50
2010,03,19,10,13,7.50
2010,03,19,10,14,7.60
2010,03,19,10,15,7.60
2010,03,19,10,16,7.50
2010,03,19,10,17,7.50
2010,03,19,10,18,7.50
2010,03,19,10,19,7.40
2010,03,19,10,20,7.40
2010,03,19,10,21,7.40
2010,03,19,10,22,7.40
2010,03,19,10,23,7.40
2010,03,19,10,24,7.50
2010,03,19,10,25,7.60
2010,03,19,10,26,7.60
2010,03,19,10,27,7.70
2010,03,19,10,28,7.70
2010,03,19,10,29,7.70
2010,03,19,10,30,7.80
2010,03,19,10,31,7.90
2010,03,19,10,32,8.00
2010,03,19,10,33,8.10
2010,03,19,10,34,8.20
2010,03,19,10,35,8.30
2010,03,19,10,36,8.40
2010,03,19,10,37,8.50
2010,03,19,10,38,8.60
2010,03,19,10,39,8.70
2010,03,19,10,40,8.80
2010,03,19,10,41,8.90
2010,03,19,10,42,8.90
2010,03,19,10,43,9.00
2010,03,19,10,44,9.00
2010,03,19,10,45,9.10
2010,03,19,10,46,9.10
2010,03,19,10,47,9.20
2010,03,19,10,48,9.20
2010,03,19,10,49,9.30
2010,03,19,10,50,9.40
2010,03,19,10,51,9.40
2010,03,19,10,52,9.50
2010,03,19,10,53,9.50
2010,03,19,10,54,9.60
2010,03,19,10,55,9.60
2010,03,19,10,56,9.70
2010,03,19,10,57,9.70
2010,03,19,10,58,9.70
2010,03,19,10,59,9.70
2010,03,19,11,00,9.80
2010,03,19,11,01,9.80
2010,03,19,11,02,9.90
2010,03,19,11,03,10.00
2010,03,19,11,04,10.10
2010,03,19,11,05,10.10
2010,03,19,11,06,10.20
2010,03,19,11,07,10.20
2010,03,19,11,08,10.20
2010,03,19,11,09,10.20
2010,03,19,11,10,10.20
2010,03,19,11,11,10.30
2010,03,19,11,12,10.30
2010,03,19,11,13,10.40
2010,03,19,11,14,10.50
2010,03,19,11,15,10.60
2010,03,19,11,16,10.60
2010,03,19,11,17,10.60
2010,03,19,11,18,10.70
2010,03,19,11,19,10.70
2010,03,19,11,20,10.70
2010,03,19,11,21,10.70
2010,03,19,11,22,10.70
2010,03,19,11,23,10.70
2010,03,19,11,24,10.80
2010,03,19,11,25,10.80
2010,03,19,11,26,10.90
2010,03,19,11,27,10.90
2010,03,19,11,28,10.90
2010,03,19,11,29,11.00
2010,03,19,11,30,11.00
2010,03,19,11,31,11.00
2010,03,19,11,32,11.00
2010,03,19,11,33,10.90
2010,03,19,11,34,10.90
2010,03,19,11,35,10.80
2010,03,19,11,36,10.70
2010,03,19,11,37,10.70
2010,03,19,11,38,10.70
2010,03,19,11,39,10.80
2010,03,19,11,40,10.90
2010,03,19,11,41,10.90
2010,03,19,11,42,10.90
2010,03,19,11,43,10.90
2010,03,19,11,44,11.00
2010,03,19,11,45,10.90
2010,03,19,11,46,10.90
2010,03,19,11,47,10.90
2010,03,19,11,48,11.00
2010,03,19,11,49,11.00
2010,03,19,11,50,11.00
2010,03,19,11,51,11.10
2010,03,19,11,52,11.10
2010,03,19,11,53,11.10
2010,03,19,11,54,11.00
2010,03,19,11,55,11.00
2010,03,19,11,56,10.90
2010,03,19,11,57,10.90
2010,03,19,11,58,10.90
2010,03,19,11,59,10.90
2010,03,19,12,00,11.00
2010,03,19,12,01,11.00
2010,03,19,12,02,11.10
2010,03,19,12,03,11.10
2010,03,19,12,04,11.00
2010,03,19,12,05,11.10
2010,03,19,12,06,11.10
2010,03,19,12,07,11.10
2010,03,19,12,08,11.10
2010,03,19,12,09,11.10
2010,03,19,12,10,11.10
2010,03,19,12,11,11.20
2010,03,19,12,12,11.20
2010,03,19,12,13,11.20
2010,03,19,12,14,11.20
2010,03,19,12,15,11.20
2010,03,19,12,16,11.30
2010,03,19,12,17,11.30
2010,03,19,12,18,11.30
2010,03,19,12,19,11.40
2010,03,19,12,20,11.40
2010,03,19,12,21,11.40
2010,03,19,12,22,11.40
2010,03,19,12,23,11.40
2010,03,19,12,24,11.50
2010,03,19,12,25,11.50
2010,03,19,12,26,11.50
2010,03,19,12,27,11.60
2010,03,19,12,28,11.70
2010,03,19,12,29,11.70
2010,03,19,12,30,11.70
2010,03,19,12,31,11.70
2010,03,19,12,32,11.70
2010,03,19,12,33,11.70
2010,03,19,12,34,11.80
2010,03,19,12,35,11.90
2010,03,19,12,36,11.90
2010,03,19,12,37,12.00
2010,03,19,12,38,12.00
2010,03,19,12,39,12.10
2010,03,19,12,40,12.10
2010,03,19,12,41,12.10
2010,03,19,12,42,12.10
2010,03,19,12,43,12.10
2010,03,19,12,44,12.20
2010,03,19,12,45,12.20
2010,03,19,12,46,12.20
2010,03,19,12,47,12.30
2010,03,19,12,48,12.40
2010,03,19,12,49,12.50
2010,03,19,12,50,12.60
2010,03,19,12,51,12.80
2010,03,19,12,52,12.80
2010,03,19,12,53,12.80
2010,03,19,12,54,12.80
2010,03,19,12,55,12.80
2010,03,19,12,56,12.80
2010,03,19,12,57,12.70
2010,03,19,12,58,12.60
2010,03,19,12,59,12.50
2010,03,19,13,00,12.50
2010,03,19,13,01,12.50
2010,03,19,13,02,12.50
2010,03,19,13,03,12.60
2010,03,19,13,04,12.60
2010,03,19,13,05,12.70
2010,03,19,13,06,12.70
2010,03,19,13,07,12.80
2010,03,19,13,08,12.90
2010,03,19,13,09,12.90
2010,03,19,13,10,13.00
2010,03,19,13,11,13.00
2010,03,19,13,12,13.00
2010,03,19,13,13,13.00
2010,03,19,13,14,12.90
2010,03,19,13,15,12.80
2010,03,19,13,16,12.70
2010,03,19,13,17,12.70
2010,03,19,13,18,12.70
2010,03,19,13,19,12.70
2010,03,19,13,20,12.70
2010,03,19,13,21,12.70
2010,03,19,13,22,12.70
2010,03,19,13,23,12.80
2010,03,19,13,24,12.80
2010,03,19,13,25,12.80
2010,03,19,13,26,12.80
2010,03,19,13,27,12.70
2010,03,19,13,28,12.70
2010,03,19,13,29,12.60
2010,03,19,13,30,12.60
2010,03,19,13,31,12.70
2010,03,19,13,32,12.70
2010,03,19,13,33,12.80
2010,03,19,13,34,12.80
2010,03,19,13,35,12.90
2010,03,19,13,36,12.90
2010,03,19,13,37,12.90
2010,03,19,13,38,13.00
2010,03,19,13,39,13.00
2010,03,19,13,40,12.90
2010,03,19,13,41,12.90
2010,03,19,13,42,12.80
2010,03,19,13,43,12.80
2010,03,19,13,44,12.80
2010,03,19,13,45,12.70
2010,03,19,13,46,12.70
2010,03,19,13,47,12.70
2010,03,19,13,48,12.70
2010,03,19,13,49,12.80
2010,03,19,13,50,12.90
2010,03,19,13,51,13.00
2010,03,19,13,52,13.10
2010,03,19,13,53,13.20
2010,03,19,13,54,13.30
2010,03,19,13,55,13.40
2010,03,19,13,56,13.40
2010,03,19,13,57,13.40
2010,03,19,13,58,13.30
2010,03,19,13,59,13.20
2010,03,19,14,00,13.10
2010,03,19,14,01,13.10
2010,03,19,14,02,13.00
2010,03,19,14,03,13.00
2010,03,19,14,04,13.10
2010,03,19,14,05,13.10
2010,03,19,14,06,13.10
2010,03,19,14,07,13.10
2010,03,19,14,08,13.10
2010,03,19,14,09,13.10
2010,03,19,14,10,13.10
2010,03,19,14,11,13.10
2010,03,19,14,12,13.20
2010,03,19,14,13,13.20
2010,03,19,14,14,13.10
2010,03,19,14,15,13.10
2010,03,19,14,16,13.10
2010,03,19,14,17,13.10
2010,03,19,14,18,13.10
2010,03,19,14,19,13.20
2010,03,19,14,20,13.30
2010,03,19,14,21,13.40
2010,03,19,14,22,13.50
2010,03,19,14,23,13.50
2010,03,19,14,24,13.50
2010,03,19,14,25,13.40
2010,03,19,14,26,13.40
2010,03,19,14,27,13.30
2010,03,19,14,28,13.30
2010,03,19,14,29,13.30
2010,03,19,14,30,13.30
2010,03,19,14,31,13.30
2010,03,19,14,32,13.40
2010,03,19,14,33,13.50
2010,03,19,14,34,13.50
2010,03,19,14,35,13.60
2010,03,19,14,36,13.60
2010,03,19,14,37,13.70
2010,03,19,14,38,13.70
2010,03,19,14,39,13.70
2010,03,19,14,40,13.60
2010,03,19,14,41,13.60
2010,03,19,14,42,13.60
2010,03,19,14,43,13.50
2010,03,19,14,44,13.50
2010,03,19,14,45,13.40
2010,03,19,14,46,13.50
2010,03,19,14,47,13.60
2010,03,19,14,48,13.70
2010,03,19,14,49,13.70
2010,03,19,14,50,13.70
2010,03,19,14,51,13.70
2010,03,19,14,52,13.60
2010,03,19,14,53,13.60
2010,03,19,14,54,13.60
2010,03,19,14,55,13.60
2010,03,19,14,56,13.60
2010,03,19,14,57,13.60
2010,03,19,14,58,13.70
2010,03,19,14,59,13.70
2010,03,19,15,00,13.70
2010,03,19,15,01,13.70
2010,03,19,15,02,13.60
2010,03,19,15,03,13.50
2010,03,19,15,04,13.40
2010,03,19,15,05,13.40
2010,03,19,15,06,13.40
2010,03,19,15,07,13.40
2010,03,19,15,08,13.40
2010,03,19,15,09,13.50
2010,03,19,15,10,13.40
2010,03,19,15,11,13.40
2010,03,19,15,12,13.40
2010,03,19,15,13,13.40
2010,03,19,15,14,13.50
2010,03,19,15,15,13.60
2010,03,19,15,16,13.70
2010,03,19,15,17,13.70
2010,03,19,15,18,13.70
2010,03,19,15,19,13.70
2010,03,19,15,20,13.70
2010,03,19,15,21,13.60
2010,03,19,15,22,13.60
2010,03,19,15,23,13.50
2010,03,19,15,24,13.50
2010,03,19,15,25,13.60
2010,03,19,15,26,13.60
2010,03,19,15,27,13.60
2010,03,19,15,28,13.70
2010,03,19,15,29,13.70
2010,03,19,15,30,13.70
2010,03,19,15,31,13.70
2010,03,19,15,32,13.70
2010,03,19,15,33,13.70
2010,03,19,15,34,13.70
2010,03,19,15,35,13.70
2010,03,19,15,36,13.80
2010,03,19,15,37,13.80
2010,03,19,15,38,13.90
2010,03,19,15,39,13.90
2010,03,19,15,40,14.00
2010,03,19,15,41,14.10
2010,03,19,15,42,14.10
2010,03,19,15,43,14.10
2010,03,19,15,44,14.10
2010,03,19,15,45,14.10
2010,03,19,15,46,14.10
2010,03,19,15,47,14.10
2010,03,19,15,48,14.10
2010,03,19,15,49,14.00
2010,03,19,15,50,14.00
2010,03,19,15,51,13.90
2010,03,19,15,52,13.90
2010,03,19,15,53,13.90
2010,03,19,15,54,13.90
2010,03,19,15,55,13.90
2010,03,19,15,56,13.90
2010,03,19,15,57,13.90
2010,03,19,15,58,13.90
2010,03,19,15,59,13.90
2010,03,19,16,00,14.00
2010,03,19,16,01,14.00
2010,03,19,16,02,13.90
2010,03,19,16,03,13.90
2010,03,19,16,04,13.90
2010,03,19,16,05,13.90
2010,03,19,16,06,13.80
2010,03,19,16,07,13.80
2010,03,19,16,08,13.90
2010,03,19,16,09,13.90
2010,03,19,16,10,13.90
2010,03,19,16,11,14.00
2010,03,19,16,12,14.00
2010,03,19,16,13,14.10
2010,03,19,16,14,14.10
2010,03,19,16,15,14.10
2010,03,19,16,16,14.10
2010,03,19,16,17,14.10
2010,03,19,16,18,14.10
2010,03,19,16,19,14.10
2010,03,19,16,20,14.10
2010,03,19,16,21,14.00
2010,03,19,16,22,14.00
2010,03,19,16,23,14.00
2010,03,19,16,24,14.00
2010,03,19,16,25,14.00
2010,03,19,16,26,14.00
2010,03,19,16,27,14.10
2010,03,19,16,28,14.10
2010,03,19,16,29,14.10
2010,03,19,16,30,14.10
2010,03,19,16,31,14.20
2010,03,19,16,32,14.10
2010,03,19,16,33,14.10
2010,03,19,16,34,14.10
2010,03,19,16,35,14.10
2010,03,19,16,36,14.00
2010,03,19,16,37,14.00
2010,03,19,16,38,14.00
2010,03,19,16,39,13.90
2010,03,19,16,40,13.90
2010,03,19,16,41,13.90
2010,03,19,16,42,13.90
2010,03,19,16,43,13.90
2010,03,19,16,44,13.80
2010,03,19,16,45,13.80
2010,03,19,16,46,13.70
2010,03,19,16,47,13.70
2010,03,19,16,48,13.70
2010,03,19,16,49,13.70
2010,03,19,16,50,13.70
2010,03,19,16,51,13.70
2010,03,19,16,52,13.70
2010,03,19,16,53,13.70
2010,03,19,16,54,13.70
2010,03,19,16,55,13.70
2010,03,19,16,56,13.70
2010,03,19,16,57,13.70
2010,03,19,16,58,13.70
2010,03,19,16,59,13.70
2010,03,19,17,00,13.70
2010,03,19,17,01,13.70
2010,03,19,17,02,13.70
2010,03,19,17,03,13.70
2010,03,19,17,04,13.70
2010,03,19,17,05,13.70
2010,03,19,17,06,13.70
2010,03,19,17,07,13.70
2010,03,19,17,08,13.70
2010,03,19,17,09,13.70
2010,03,19,17,10,13.60
2010,03,19,17,11,13.60
2010,03,19,17,12,13.60
2010,03,19,17,13,13.70
2010,03,19,17,14,13.70
2010,03,19,17,15,13.70
2010,03,19,17,16,13.70
2010,03,19,17,17,13.70
2010,03,19,17,18,13.70
2010,03,19,17,19,13.70
2010,03,19,17,20,13.70
2010,03,19,17,21,13.70
2010,03,19,17,22,13.70
2010,03,19,17,23,13.70
2010,03,19,17,24,13.70
2010,03,19,17,25,13.60
2010,03,19,17,26,13.60
2010,03,19,17,27,13.60
2010,03,19,17,28,13.60
2010,03,19,17,29,13.60
2010,03,19,17,30,13.50
2010,03,19,17,31,13.50
2010,03,19,17,32,13.50
2010,03,19,17,33,13.60
2010,03,19,17,34,13.60
2010,03,19,17,35,13.60
2010,03,19,17,36,13.60
2010,03,19,17,37,13.60
2010,03,19,17,38,13.50
2010,03,19,17,39,13.50
2010,03,19,17,40,13.40
2010,03,19,17,41,13.40
2010,03,19,17,42,13.40
2010,03,19,17,43,13.30
2010,03,19,17,44,13.30
2010,03,19,17,45,13.30
2010,03,19,17,46,13.30